📊 Raw Sensor Data
Showing records 42501 to 42525 of 85,000 total
| ID | Distance (ft) | Battery V | Battery A | Int Temp (°F) | Int Humid (%) | Ext Temp (°F) | Solar V | RSSI | SNR | Time Stamp |
|---|---|---|---|---|---|---|---|---|---|---|
| 42512 | 15.1 | 3.94 | -5 | 55 | 43 | 57 | 0.00 | -76 | 8 | 06/04/2025 04:00 AM |
| 42511 | 15.1 | 3.94 | -5 | 55 | 43 | 57 | 0.00 | -75 | 8 | 06/04/2025 03:45 AM |
| 42510 | 15.1 | 4.00 | -5 | 55 | 43 | 57 | 0.00 | -74 | 8 | 06/04/2025 03:30 AM |
| 42509 | 15.1 | 3.94 | -5 | 55 | 44 | 57 | 0.00 | -73 | 8 | 06/04/2025 03:00 AM |
| 42508 | 15.1 | 4.00 | -5 | 55 | 44 | 56 | 0.00 | -75 | 8 | 06/04/2025 02:45 AM |
| 42507 | 15.1 | 3.94 | -5 | 55 | 44 | 56 | 0.00 | -75 | 8 | 06/04/2025 02:30 AM |
| 42506 | 15.1 | 4.00 | -5 | 56 | 44 | 56 | 0.00 | -74 | 8 | 06/04/2025 02:00 AM |
| 42505 | 15.1 | 3.94 | -5 | 57 | 44 | 57 | 0.00 | -73 | 8 | 06/04/2025 01:45 AM |
| 42504 | 15.1 | 3.95 | -5 | 58 | 44 | 59 | 0.00 | -75 | 8 | 06/04/2025 01:30 AM |
| 42503 | 15.1 | 3.95 | -5 | 58 | 44 | 59 | 0.00 | -78 | 6 | 06/04/2025 01:15 AM |
| 42502 | 15.1 | 3.95 | -5 | 58 | 44 | 59 | 0.00 | -75 | 8 | 06/04/2025 01:00 AM |
| 42501 | 15.1 | 4.01 | -5 | 59 | 44 | 60 | 0.00 | -76 | 8 | 06/04/2025 12:45 AM |
| 42500 | 15.1 | 4.01 | -5 | 59 | 44 | 60 | 0.00 | -77 | 8 | 06/04/2025 12:30 AM |
| 42499 | 15.1 | 3.95 | -5 | 60 | 44 | 60 | 0.10 | -75 | 8 | 06/04/2025 12:15 AM |
| 42498 | 15.1 | 3.95 | -5 | 61 | 44 | 62 | 0.00 | -76 | 8 | 06/04/2025 12:00 AM |
| 42497 | 15.1 | 3.95 | -5 | 61 | 45 | 62 | 0.00 | -74 | 8 | 06/03/2025 11:45 PM |
| 42496 | 15.1 | 3.95 | -5 | 61 | 45 | 62 | 0.00 | -76 | 8 | 06/03/2025 11:30 PM |
| 42495 | 15.1 | 3.95 | -5 | 61 | 45 | 62 | 0.00 | -74 | 8 | 06/03/2025 11:15 PM |
| 42494 | 15.1 | 3.95 | -5 | 62 | 45 | 63 | 0.00 | -74 | 8 | 06/03/2025 11:00 PM |
| 42493 | 15.1 | 4.01 | -5 | 62 | 46 | 63 | 0.00 | -74 | 8 | 06/03/2025 10:45 PM |
| 42492 | 15.1 | 3.95 | -5 | 63 | 46 | 63 | 0.00 | -75 | 8 | 06/03/2025 10:30 PM |
| 42491 | 15.0 | 3.95 | -5 | 64 | 46 | 64 | 0.00 | -68 | 7 | 06/03/2025 10:15 PM |
| 42490 | 15.0 | 3.96 | -5 | 64 | 47 | 65 | 0.00 | -69 | 7 | 06/03/2025 10:00 PM |
| 42489 | 15.0 | 3.96 | -5 | 65 | 48 | 65 | 0.00 | -68 | 8 | 06/03/2025 09:45 PM |
| 42488 | 15.0 | 3.96 | -5 | 66 | 50 | 66 | 0.00 | -68 | 7 | 06/03/2025 09:15 PM |